Location: Chervonnoye
(48.6000°N, 34.4000°E)
Time: 12:57:23
(UTC+00:00)

CAS-4B - Pass Details

Date: 11 December 2021
Orbit: 529 x 539 km, 43.0° (Epoch: 18 January)

Event Time Altitude Azimuth Distance (km) Brightness Sun altitude
Rises 17:19:21 0° 256° (WSW) 2,679 ? -34.0°
Reaches altitude 10° 17:21:41 10° 248° (WSW) 1,786 ? -34.4°
Enters shadow 17:22:09 13° 246° (WSW) 1,621 ? -34.5°
